When you browse on this site, cookies collect data to enhance your experience and personalize the content and advertising you see.
Visit our Privacy Policy to learn more. By continuing to use the site, you agree to this use of cookies and data.
EN

Hourly Weather Vaymes

Today, 18 September, Friday

Time Temperature Precipitation Wind Pressure Humidity
00:00 +4°C° 1.1 mm 4 mps 742 mmHg 93%
01:00 +5°C° 2 mm 3 mps 741 mmHg 95%
02:00 +5°C° 2 mm 3 mps 741 mmHg 96%
03:00 +5°C° 0 mm 3 mps 739 mmHg 96%
04:00 +5°C° 0.4 mm 3 mps 739 mmHg 96%
05:00 +7°C° 0.4 mm 2 mps 738 mmHg 96%
06:00 +7°C° 0.4 mm 2 mps 738 mmHg 96%
07:00 +7°C° 0.2 mm 2 mps 738 mmHg 96%
08:00 +8°C° 0.2 mm 2 mps 738 mmHg 96%
09:00 +8°C° 0.2 mm 2 mps 738 mmHg 96%
10:00 +9°C° 0.2 mm 2 mps 738 mmHg 95%
11:00 +9°C° 0.2 mm 2 mps 738 mmHg 95%
12:00 +10°C° 0.2 mm 2 mps 737 mmHg 95%
13:00 +10°C° 0.5 mm 2 mps 737 mmHg 95%
14:00 +10°C° 0.5 mm 2 mps 737 mmHg 96%
15:00 +12°C° 0.5 mm 1 mps 737 mmHg 96%
16:00 +12°C° 0.2 mm 2 mps 737 mmHg 96%
17:00 +10°C° 0.2 mm 2 mps 737 mmHg 96%
18:00 +10°C° 0.2 mm 2 mps 737 mmHg 96%
19:00 +9°C° 0 mm 2 mps 737 mmHg 96%
20:00 +8°C° 0 mm 3 mps 737 mmHg 96%
21:00 +7°C° 0 mm 3 mps 737 mmHg 95%
22:00 +7°C° 0 mm 3 mps 736 mmHg 95%
23:00 +5°C° 0 mm 3 mps 736 mmHg 95%

Tomorrow, 19 September, Saturday

Time Temperature Precipitation Wind Pressure Humidity
00:00 +5°C° 0 mm 3 mps 735 mmHg 95%
01:00 +5°C° 0 mm 3 mps 735 mmHg 96%
02:00 +4°C° 0 mm 3 mps 735 mmHg 96%
03:00 +4°C° 0 mm 3 mps 734 mmHg 96%
04:00 +5°C° 0.3 mm 3 mps 734 mmHg 96%
05:00 +5°C° 0.3 mm 4 mps 733 mmHg 96%
06:00 +5°C° 0.3 mm 4 mps 733 mmHg 96%
07:00 +5°C° 0.9 mm 4 mps 733 mmHg 95%
08:00 +5°C° 0.9 mm 4 mps 733 mmHg 95%
09:00 +5°C° 0.9 mm 4 mps 733 mmHg 95%
10:00 +5°C° 0.2 mm 3 mps 733 mmHg 94%
11:00 +5°C° 0.2 mm 3 mps 733 mmHg 94%
12:00 +5°C° 0.2 mm 3 mps 733 mmHg 93%
13:00 +5°C° 0.1 mm 3 mps 734 mmHg 92%
14:00 +5°C° 0.1 mm 3 mps 734 mmHg 91%
15:00 +5°C° 0.1 mm 3 mps 734 mmHg 89%
16:00 +5°C° 0.1 mm 3 mps 735 mmHg 90%
17:00 +4°C° 0.1 mm 3 mps 735 mmHg 92%
18:00 +5°C° 0.1 mm 2 mps 735 mmHg 93%
19:00 +5°C° 0 mm 2 mps 735 mmHg 94%
20:00 +4°C° 0 mm 2 mps 735 mmHg 95%
21:00 +4°C° 0 mm 2 mps 735 mmHg 97%
22:00 +4°C° 0 mm 2 mps 735 mmHg 97%
23:00 +4°C° 0 mm 2 mps 735 mmHg 97%

Day after tomorrow, 20 September, Sunday

Time Temperature Precipitation Wind Pressure Humidity
00:00 +4°C° 0 mm 2 mps 735 mmHg 97%
01:00 +4°C° 0 mm 2 mps 735 mmHg 96%
02:00 +4°C° 0 mm 2 mps 735 mmHg 96%
03:00 +3°C° 0 mm 3 mps 735 mmHg 95%
04:00 +4°C° 0 mm 2 mps 736 mmHg 95%
05:00 +4°C° 0 mm 2 mps 736 mmHg 95%
06:00 +4°C° 0 mm 2 mps 736 mmHg 96%
07:00 +5°C° 0.2 mm 2 mps 736 mmHg 94%
08:00 +4°C° 0.2 mm 3 mps 736 mmHg 93%
09:00 +4°C° 0.2 mm 3 mps 736 mmHg 91%
10:00 +5°C° 0.2 mm 3 mps 736 mmHg 89%
11:00 +5°C° 0.2 mm 3 mps 736 mmHg 86%
12:00 +7°C° 0.2 mm 3 mps 736 mmHg 84%
13:00 +7°C° 0.1 mm 3 mps 736 mmHg 86%
14:00 +5°C° 0.1 mm 3 mps 736 mmHg 88%
15:00 +5°C° 0.1 mm 3 mps 736 mmHg 91%
16:00 +5°C° 0.3 mm 3 mps 737 mmHg 91%
17:00 +4°C° 0.3 mm 3 mps 737 mmHg 92%
18:00 +4°C° 0.3 mm 3 mps 737 mmHg 93%
19:00 +3°C° 0.1 mm 3 mps 738 mmHg 94%
20:00 +2°C° 0.1 mm 3 mps 738 mmHg 95%
21:00 +1°C° 0.1 mm 3 mps 739 mmHg 96%
22:00 +2°C° 0 mm 2 mps 739 mmHg 96%
23:00 +2°C° 0 mm 2 mps 739 mmHg 97%

21 September, Monday

Time Temperature Precipitation Wind Pressure Humidity
00:00 +1°C° 0 mm 2 mps 739 mmHg 97%
01:00 +1°C° 0 mm 2 mps 739 mmHg 97%
02:00 +2°C° 0 mm 2 mps 739 mmHg 98%
03:00 +2°C° 0 mm 2 mps 739 mmHg 98%
04:00 +1°C° 0.3 mm 3 mps 738 mmHg 97%
05:00 +2°C° 0.3 mm 3 mps 738 mmHg 97%
06:00 +2°C° 0.3 mm 3 mps 738 mmHg 96%
07:00 +3°C° 0.1 mm 3 mps 738 mmHg 93%
08:00 +3°C° 0.1 mm 3 mps 737 mmHg 91%
09:00 +4°C° 0.1 mm 3 mps 737 mmHg 88%
10:00 +5°C° 0.1 mm 2 mps 736 mmHg 90%
11:00 +5°C° 0.1 mm 2 mps 736 mmHg 92%
12:00 +6°C° 0.1 mm 1 mps 736 mmHg 94%
13:00 +6°C° 0.4 mm 1 mps 735 mmHg 95%
14:00 +5°C° 0.4 mm 2 mps 735 mmHg 96%
15:00 +5°C° 0.4 mm 2 mps 735 mmHg 97%
16:00 +5°C° 0.3 mm 2 mps 735 mmHg 96%
17:00 +4°C° 0.3 mm 3 mps 735 mmHg 94%
18:00 +4°C° 0.3 mm 3 mps 735 mmHg 93%
19:00 +4°C° 0.9 mm 3 mps 736 mmHg 94%
20:00 +4°C° 0.9 mm 3 mps 736 mmHg 94%
21:00 +4°C° 0.9 mm 4 mps 737 mmHg 94%
22:00 +4°C° 0.3 mm 3 mps 737 mmHg 95%
23:00 +3°C° 0.3 mm 3 mps 738 mmHg 95%

22 September, Tuesday

Time Temperature Precipitation Wind Pressure Humidity
00:00 +3°C° 0.3 mm 3 mps 739 mmHg 95%
01:00 +3°C° 0.1 mm 3 mps 740 mmHg 95%
02:00 +3°C° 0.1 mm 3 mps 740 mmHg 94%
03:00 +2°C° 0.1 mm 3 mps 741 mmHg 94%
04:00 +3°C° 0 mm 2 mps 742 mmHg 95%
05:00 +2°C° 0 mm 2 mps 743 mmHg 96%
06:00 +1°C° 0 mm 2 mps 743 mmHg 98%
07:00 +2°C° 0 mm 2 mps 744 mmHg 94%
08:00 +4°C° 0 mm 2 mps 744 mmHg 91%
09:00 +4°C° 0 mm 3 mps 745 mmHg 88%
10:00 +5°C° 0 mm 3 mps 745 mmHg 84%
11:00 +7°C° 0 mm 3 mps 745 mmHg 80%
12:00 +8°C° 0 mm 3 mps 746 mmHg 76%
13:00 +8°C° 0 mm 3 mps 745 mmHg 74%
14:00 +8°C° 0 mm 3 mps 745 mmHg 72%
15:00 +9°C° 0 mm 3 mps 745 mmHg 70%
16:00 +8°C° 0 mm 3 mps 745 mmHg 72%
17:00 +8°C° 0 mm 3 mps 745 mmHg 75%
18:00 +8°C° 0 mm 3 mps 745 mmHg 78%
19:00 +8°C° 0 mm 3 mps 745 mmHg 79%
20:00 +8°C° 0 mm 3 mps 744 mmHg 81%
21:00 +8°C° 0 mm 3 mps 744 mmHg 82%
22:00 +8°C° 0 mm 4 mps 744 mmHg 84%
23:00 +8°C° 0 mm 4 mps 744 mmHg 85%

23 September, Wednesday

Time Temperature Precipitation Wind Pressure Humidity
00:00 +8°C° 0 mm 4 mps 744 mmHg 86%
01:00 +10°C° 0 mm 4 mps 744 mmHg 88%
02:00 +10°C° 0 mm 4 mps 744 mmHg 90%
03:00 +11°C° 0 mm 3 mps 744 mmHg 93%
04:00 +11°C° 0 mm 3 mps 744 mmHg 93%
05:00 +10°C° 0 mm 3 mps 744 mmHg 93%
06:00 +10°C° 0 mm 3 mps 744 mmHg 94%
07:00 +11°C° 0 mm 4 mps 744 mmHg 91%
08:00 +11°C° 0 mm 4 mps 744 mmHg 89%
09:00 +11°C° 0 mm 4 mps 744 mmHg 86%
10:00 +13°C° 0 mm 4 mps 744 mmHg 81%
11:00 +14°C° 0 mm 4 mps 744 mmHg 76%
12:00 +15°C° 0 mm 5 mps 744 mmHg 71%
13:00 +16°C° 0 mm 5 mps 744 mmHg 70%
14:00 +16°C° 0 mm 5 mps 744 mmHg 70%
15:00 +17°C° 0 mm 5 mps 743 mmHg 69%
16:00 +15°C° 0 mm 4 mps 743 mmHg 74%
17:00 +14°C° 0 mm 4 mps 743 mmHg 79%
18:00 +13°C° 0 mm 3 mps 743 mmHg 84%
19:00 +13°C° 0 mm 4 mps 744 mmHg 85%
20:00 +13°C° 0 mm 4 mps 744 mmHg 86%
21:00 +13°C° 0 mm 4 mps 744 mmHg 86%
22:00 +12°C° 0 mm 4 mps 744 mmHg 88%
23:00 +12°C° 0 mm 3 mps 744 mmHg 90%
Show more